UAL132 PTPN-PTKK

Flight info

Callsign UAL132
Flight time 1h 5m
Altitude 36000
Route BIRUQ R584 MICNO
Aircraft B38M/M-SDE1FGHILORVWXY/HB1

Departure

Time 2026-04-29 13:56
Airport Pohnpei International Airport (PTPN)

Arrival

Time 2026-04-29 15:01
Airport Chuuk International Airport (PTKK)
Time Latitude Longitude Altitude Speed Heading
2026-04-29 13:32 6.98196 158.20331 18 ft 0 kts 178°
2026-04-29 13:48 6.98220 158.20331 22 ft 4 kts 185°
2026-04-29 13:48 6.98244 158.20339 24 ft 3 kts 218°
2026-04-29 13:48 6.98262 158.20355 22 ft 4 kts 235°
2026-04-29 13:48 6.98271 158.20379 21 ft 4 kts 269°
2026-04-29 13:49 6.98268 158.20405 23 ft 4 kts 277°
2026-04-29 13:49 6.98267 158.20414 24 ft 0 kts 270°
2026-04-29 13:52 6.98267 158.20411 24 ft 1 kts 270°
2026-04-29 13:52 6.98267 158.20393 23 ft 4 kts 268°
2026-04-29 13:52 6.98278 158.20364 22 ft 5 kts 313°
2026-04-29 13:52 6.98316 158.20357 20 ft 7 kts
2026-04-29 13:53 6.98367 158.20359 20 ft 8 kts 359°
2026-04-29 13:53 6.98433 158.20361 20 ft 10 kts
2026-04-29 13:53 6.98505 158.20335 19 ft 13 kts 305°
2026-04-29 13:53 6.98515 158.20242 19 ft 14 kts 270°
2026-04-29 13:54 6.98486 158.20147 20 ft 14 kts 241°
2026-04-29 13:54 6.98498 158.20076 20 ft 10 kts
2026-04-29 13:54 6.98515 158.20128 20 ft 9 kts 90°
2026-04-29 13:54 6.98515 158.20134 20 ft 0 kts 90°
2026-04-29 13:55 6.98515 158.20137 20 ft 4 kts 90°
2026-04-29 13:55 6.98514 158.20383 19 ft 77 kts 90°
2026-04-29 13:55 6.98510 158.21195 20 ft 153 kts 90°
2026-04-29 13:56 6.98514 158.22393 514 ft 180 kts 89°
2026-04-29 13:56 6.98534 158.23703 1244 ft 200 kts 89°
2026-04-29 13:56 6.98661 158.25184 2084 ft 220 kts 76°
2026-04-29 13:56 6.99360 158.26600 2664 ft 237 kts 49°
2026-04-29 13:57 7.00795 158.27497 2891 ft 252 kts 13°
2026-04-29 13:57 7.02582 158.27370 3353 ft 269 kts 340°
2026-04-29 13:57 7.04050 158.26207 4000 ft 269 kts 299°
2026-04-29 13:57 7.04742 158.24465 4988 ft 276 kts 290°
2026-04-29 13:58 7.05735 158.22773 5864 ft 284 kts 310°
2026-04-29 13:58 7.07098 158.21316 6811 ft 287 kts 303°
2026-04-29 13:58 7.07772 158.19461 7726 ft 284 kts 270°
2026-04-29 13:58 7.07437 158.17520 8581 ft 284 kts 250°
2026-04-29 13:59 7.06934 158.15595 9439 ft 289 kts 257°
2026-04-29 13:59 7.06574 158.13594 10252 ft 296 kts 259°
2026-04-29 13:59 7.06272 158.11477 10688 ft 314 kts 261°
2026-04-29 13:59 7.06010 158.09248 11203 ft 327 kts 263°
2026-04-29 14:00 7.05769 158.06955 11955 ft 328 kts 263°
2026-04-29 14:00 7.05537 158.04648 12672 ft 334 kts 264°
2026-04-29 14:00 7.05314 158.02309 13405 ft 336 kts 264°
2026-04-29 14:00 7.05092 157.99953 14089 ft 340 kts 264°
2026-04-29 14:01 7.04874 157.97609 14712 ft 342 kts 264°
2026-04-29 14:01 7.04651 157.95220 15316 ft 345 kts 264°
2026-04-29 14:01 7.04427 157.92794 15896 ft 349 kts 264°
2026-04-29 14:01 7.04200 157.90354 16464 ft 352 kts 264°
2026-04-29 14:02 7.03970 157.87879 17058 ft 355 kts 264°
2026-04-29 14:02 7.03739 157.85399 17635 ft 358 kts 264°
2026-04-29 14:02 7.03506 157.82892 18198 ft 360 kts 264°
2026-04-29 14:02 7.03270 157.80366 18660 ft 363 kts 264°
2026-04-29 14:03 7.03033 157.77825 19113 ft 366 kts 264°
2026-04-29 14:03 7.02796 157.75287 19557 ft 369 kts 264°
2026-04-29 14:03 7.02554 157.72700 20005 ft 372 kts 264°
2026-04-29 14:03 7.02340 157.70099 20437 ft 375 kts 269°
2026-04-29 14:04 7.02518 157.67470 20880 ft 378 kts 274°
2026-04-29 14:04 7.02735 157.64818 21280 ft 382 kts 274°
2026-04-29 14:04 7.02951 157.62141 21712 ft 385 kts 273°
2026-04-29 14:04 7.03169 157.59442 22136 ft 388 kts 273°
2026-04-29 14:05 7.03388 157.56723 22561 ft 391 kts 273°
2026-04-29 14:05 7.03606 157.54018 22970 ft 394 kts 273°
2026-04-29 14:05 7.03828 157.51261 23413 ft 396 kts 273°
2026-04-29 14:05 7.04050 157.48486 23767 ft 399 kts 274°
2026-04-29 14:06 7.04275 157.45689 24105 ft 402 kts 273°
2026-04-29 14:06 7.04501 157.42871 24491 ft 403 kts 273°
2026-04-29 14:06 7.04728 157.40044 24843 ft 405 kts 273°
2026-04-29 14:06 7.04952 157.37245 25200 ft 408 kts 274°
2026-04-29 14:07 7.05181 157.34381 25524 ft 411 kts 274°
2026-04-29 14:07 7.05412 157.31501 25871 ft 413 kts 274°
2026-04-29 14:07 7.05643 157.28612 26211 ft 416 kts 274°
2026-04-29 14:07 7.05875 157.25699 26560 ft 418 kts 273°
2026-04-29 14:08 7.06109 157.22770 26908 ft 420 kts 274°
2026-04-29 14:08 7.06344 157.19826 27214 ft 423 kts 274°
2026-04-29 14:08 7.06578 157.16899 27511 ft 426 kts 274°
2026-04-29 14:08 7.06816 157.13909 27844 ft 428 kts 274°
2026-04-29 14:09 7.07054 157.10910 28159 ft 431 kts 274°
2026-04-29 14:09 7.07294 157.07891 28473 ft 433 kts 274°
2026-04-29 14:09 7.07536 157.04852 28783 ft 436 kts 274°
2026-04-29 14:09 7.07778 157.01805 29091 ft 438 kts 274°
2026-04-29 14:10 7.08020 156.98740 29392 ft 440 kts 274°
2026-04-29 14:10 7.08265 156.95655 29681 ft 443 kts 274°
2026-04-29 14:10 7.08507 156.92596 29945 ft 445 kts 274°
2026-04-29 14:10 7.08753 156.89482 30210 ft 447 kts 274°
2026-04-29 14:11 7.09001 156.86351 30399 ft 451 kts 274°
2026-04-29 14:11 7.09250 156.83191 30578 ft 454 kts 274°
2026-04-29 14:11 7.09500 156.80011 30825 ft 456 kts 274°
2026-04-29 14:11 7.09753 156.76813 31062 ft 458 kts 274°
2026-04-29 14:12 7.10006 156.73610 31328 ft 459 kts 274°
2026-04-29 14:12 7.10255 156.70437 31579 ft 461 kts 274°
2026-04-29 14:12 7.10509 156.67207 31780 ft 463 kts 274°
2026-04-29 14:12 7.10764 156.63963 32005 ft 465 kts 274°
2026-04-29 14:13 7.11020 156.60699 32260 ft 466 kts 274°
2026-04-29 14:13 7.11276 156.57444 32500 ft 468 kts 274°
2026-04-29 14:13 7.11533 156.54165 32681 ft 471 kts 274°
2026-04-29 14:13 7.11791 156.50867 32860 ft 473 kts 274°
2026-04-29 14:14 7.12050 156.47554 33117 ft 474 kts 274°
2026-04-29 14:14 7.12306 156.44272 33327 ft 476 kts 274°
2026-04-29 14:14 7.12566 156.40943 33550 ft 478 kts 274°
2026-04-29 14:14 7.12827 156.37597 33792 ft 478 kts 274°
2026-04-29 14:15 7.13087 156.34260 34063 ft 478 kts 274°
2026-04-29 14:15 7.13346 156.30925 34336 ft 477 kts 274°
2026-04-29 14:15 7.13605 156.27598 34619 ft 476 kts 274°
2026-04-29 14:15 7.13863 156.24270 34867 ft 476 kts 274°
2026-04-29 14:16 7.14122 156.20946 35092 ft 476 kts 274°
2026-04-29 14:16 7.14376 156.17665 35338 ft 476 kts 274°
2026-04-29 14:16 7.14633 156.14343 35597 ft 475 kts 274°
2026-04-29 14:16 7.14890 156.11024 35837 ft 475 kts 274°
2026-04-29 14:17 7.15403 156.04387 35880 ft 472 kts 274°
2026-04-29 14:17 7.15908 155.97836 35889 ft 472 kts 274°
2026-04-29 14:18 7.16416 155.91242 35885 ft 472 kts 274°
2026-04-29 14:18 7.16925 155.84625 35890 ft 473 kts 274°
2026-04-29 14:19 7.17432 155.78010 35889 ft 473 kts 274°
2026-04-29 14:19 7.17935 155.71443 35886 ft 473 kts 274°
2026-04-29 14:20 7.18440 155.64825 35888 ft 473 kts 274°
2026-04-29 14:20 7.18859 155.59330 35883 ft 473 kts 274°
2026-04-29 14:21 7.19446 155.51630 35889 ft 474 kts 274°
2026-04-29 14:21 7.19864 155.46125 35888 ft 474 kts 274°
2026-04-29 14:22 7.20367 155.39502 35881 ft 474 kts 274°
2026-04-29 14:22 7.20868 155.32885 35886 ft 474 kts 274°
2026-04-29 14:23 7.21365 155.26306 35877 ft 474 kts 274°
2026-04-29 14:23 7.21864 155.19687 35881 ft 474 kts 274°
2026-04-29 14:24 7.22363 155.13057 35886 ft 473 kts 274°
2026-04-29 14:24 7.22858 155.06478 35886 ft 473 kts 274°
2026-04-29 14:25 7.23354 154.99855 35886 ft 473 kts 274°
2026-04-29 14:25 7.23850 154.93236 35881 ft 473 kts 274°
2026-04-29 14:26 7.24344 154.86618 35883 ft 473 kts 274°
2026-04-29 14:26 7.24834 154.80041 35875 ft 473 kts 274°
2026-04-29 14:27 7.25327 154.73421 35883 ft 473 kts 274°
2026-04-29 14:28 7.26064 154.63492 35881 ft 474 kts 274°
2026-04-29 14:28 7.26551 154.56908 35883 ft 474 kts 274°
2026-04-29 14:29 7.27041 154.50273 35881 ft 474 kts 274°
2026-04-29 14:29 7.27529 154.43658 35876 ft 474 kts 274°
2026-04-29 14:30 7.28017 154.37027 35878 ft 474 kts 274°
2026-04-29 14:30 7.28501 154.30440 35883 ft 474 kts 274°
2026-04-29 14:31 7.28987 154.23809 35885 ft 474 kts 274°
2026-04-29 14:31 7.29472 154.17176 35876 ft 474 kts 274°
2026-04-29 14:32 7.29956 154.10551 35883 ft 474 kts 274°
2026-04-29 14:32 7.30436 154.03959 35877 ft 474 kts 274°
2026-04-29 14:33 7.30919 153.97313 35882 ft 475 kts 274°
2026-04-29 14:33 7.31398 153.90718 35883 ft 475 kts 274°
2026-04-29 14:34 7.31874 153.84142 35214 ft 467 kts 274°
2026-04-29 14:34 7.32112 153.80856 34440 ft 472 kts 274°
2026-04-29 14:34 7.32351 153.77554 33834 ft 472 kts 274°
2026-04-29 14:34 7.32588 153.74264 33295 ft 468 kts 274°
2026-04-29 14:35 7.32823 153.71005 32796 ft 464 kts 274°
2026-04-29 14:35 7.33055 153.67776 32288 ft 461 kts 274°
2026-04-29 14:35 7.33287 153.64562 31768 ft 458 kts 274°
2026-04-29 14:35 7.33514 153.61405 31262 ft 456 kts 274°
2026-04-29 14:36 7.33742 153.58230 30761 ft 453 kts 274°
2026-04-29 14:36 7.33969 153.55061 30248 ft 451 kts 274°
2026-04-29 14:36 7.34194 153.51916 29725 ft 449 kts 274°
2026-04-29 14:36 7.34419 153.48775 29162 ft 447 kts 274°
2026-04-29 14:37 7.34642 153.45658 28670 ft 443 kts 274°
2026-04-29 14:37 7.34862 153.42575 28208 ft 439 kts 274°
2026-04-29 14:37 7.35080 153.39515 27745 ft 436 kts 274°
2026-04-29 14:37 7.35294 153.36522 27293 ft 432 kts 274°
2026-04-29 14:38 7.35509 153.33507 26837 ft 429 kts 274°
2026-04-29 14:38 7.35721 153.30522 26388 ft 423 kts 274°
2026-04-29 14:38 7.35930 153.27582 25951 ft 417 kts 274°
2026-04-29 14:38 7.36136 153.24687 25528 ft 411 kts 273°
2026-04-29 14:39 7.36338 153.21839 25105 ft 405 kts 273°
2026-04-29 14:39 7.36535 153.19059 24706 ft 400 kts 273°
2026-04-29 14:39 7.36732 153.16282 24305 ft 394 kts 274°
2026-04-29 14:39 7.36926 153.13542 23910 ft 389 kts 273°
2026-04-29 14:40 7.37117 153.10834 23525 ft 385 kts 273°
2026-04-29 14:40 7.37306 153.08162 23080 ft 380 kts 273°
2026-04-29 14:40 7.37492 153.05524 22671 ft 375 kts 273°
2026-04-29 14:40 7.37676 153.02916 22296 ft 368 kts 273°
2026-04-29 14:41 7.37857 153.00363 21931 ft 362 kts 273°
2026-04-29 14:41 7.38031 152.97879 21576 ft 357 kts 272°
2026-04-29 14:41 7.38205 152.95403 21225 ft 351 kts 273°
2026-04-29 14:41 7.38377 152.92967 20878 ft 346 kts 272°
2026-04-29 14:42 7.38546 152.90568 20534 ft 340 kts 272°
2026-04-29 14:42 7.38712 152.88202 20192 ft 336 kts 272°
2026-04-29 14:42 7.38876 152.85840 19866 ft 341 kts 272°
2026-04-29 14:42 7.39045 152.83434 19516 ft 345 kts 272°
2026-04-29 14:43 7.39216 152.81014 19174 ft 346 kts 273°
2026-04-29 14:43 7.39383 152.78627 18835 ft 345 kts 272°
2026-04-29 14:43 7.39551 152.76221 18495 ft 344 kts 271°
2026-04-29 14:43 7.39720 152.73818 18148 ft 342 kts 272°
2026-04-29 14:44 7.39887 152.71425 17765 ft 341 kts 272°
2026-04-29 14:44 7.40052 152.69053 17405 ft 339 kts 272°
2026-04-29 14:44 7.40218 152.66689 17061 ft 336 kts 272°
2026-04-29 14:44 7.40379 152.64377 16727 ft 334 kts 272°
2026-04-29 14:45 7.40541 152.62050 16392 ft 331 kts 272°
2026-04-29 14:45 7.40702 152.59742 16062 ft 329 kts 272°
2026-04-29 14:45 7.40861 152.57449 15731 ft 327 kts 273°
2026-04-29 14:45 7.41020 152.55168 15411 ft 324 kts 272°
2026-04-29 14:46 7.41176 152.52909 15079 ft 322 kts 273°
2026-04-29 14:46 7.41334 152.50660 14752 ft 321 kts 273°
2026-04-29 14:46 7.41486 152.48454 14439 ft 319 kts 273°
2026-04-29 14:46 7.41640 152.46227 14120 ft 317 kts 273°
2026-04-29 14:47 7.41794 152.44011 13798 ft 316 kts 273°
2026-04-29 14:47 7.41948 152.41805 13454 ft 314 kts 273°
2026-04-29 14:47 7.42099 152.39613 13105 ft 313 kts 273°
2026-04-29 14:47 7.42199 152.38164 12887 ft 311 kts 274°
2026-04-29 14:48 7.42381 152.35297 12453 ft 308 kts 269°
2026-04-29 14:48 7.41980 152.33195 12090 ft 306 kts 250°
2026-04-29 14:48 7.41301 152.31169 11788 ft 303 kts 251°
2026-04-29 14:48 7.40638 152.29157 11486 ft 301 kts 251°
2026-04-29 14:49 7.39972 152.27169 11195 ft 299 kts 251°
2026-04-29 14:49 7.39305 152.25190 10888 ft 297 kts 250°
2026-04-29 14:49 7.38636 152.23219 10578 ft 296 kts 250°
2026-04-29 14:49 7.37978 152.21287 10275 ft 295 kts 250°
2026-04-29 14:50 7.37319 152.19350 10082 ft 289 kts 250°
2026-04-29 14:50 7.36675 152.17461 9948 ft 281 kts 250°
2026-04-29 14:50 7.36044 152.15609 9721 ft 278 kts 250°
2026-04-29 14:50 7.35413 152.13759 9387 ft 282 kts 250°
2026-04-29 14:51 7.34770 152.11871 9063 ft 287 kts 250°
2026-04-29 14:51 7.34120 152.09966 8743 ft 289 kts 250°
2026-04-29 14:51 7.33467 152.08050 8436 ft 288 kts 250°
2026-04-29 14:51 7.32823 152.06166 8119 ft 287 kts 250°
2026-04-29 14:52 7.32175 152.04263 7815 ft 286 kts 250°
2026-04-29 14:52 7.31526 152.02363 7502 ft 286 kts 250°
2026-04-29 14:52 7.30880 152.00472 7203 ft 284 kts 250°
2026-04-29 14:52 7.30237 151.98584 6899 ft 284 kts 250°
2026-04-29 14:53 7.29604 151.96730 6603 ft 283 kts 250°
2026-04-29 14:53 7.28964 151.94853 6287 ft 283 kts 250°
2026-04-29 14:53 7.28324 151.92981 5986 ft 282 kts 250°
2026-04-29 14:53 7.27687 151.91118 5668 ft 282 kts 250°
2026-04-29 14:54 7.27050 151.89251 5365 ft 281 kts 250°
2026-04-29 14:54 7.26411 151.87382 5072 ft 280 kts 250°
2026-04-29 14:54 7.25775 151.85520 4781 ft 279 kts 250°
2026-04-29 14:54 7.25154 151.83703 4528 ft 276 kts 250°
2026-04-29 14:55 7.24684 151.81851 4221 ft 271 kts 269°
2026-04-29 14:55 7.25111 151.80070 4007 ft 257 kts 302°
2026-04-29 14:55 7.26240 151.78755 3859 ft 241 kts 319°
2026-04-29 14:55 7.27418 151.77604 3739 ft 230 kts 319°
2026-04-29 14:56 7.28546 151.76505 3545 ft 222 kts 319°
2026-04-29 14:56 7.29642 151.75442 3327 ft 214 kts 319°
2026-04-29 14:56 7.30699 151.74416 3078 ft 208 kts 319°
2026-04-29 14:56 7.31712 151.73434 2834 ft 201 kts 319°
2026-04-29 14:57 7.32789 151.72634 2577 ft 185 kts 344°
2026-04-29 14:57 7.34015 151.72558 2353 ft 173 kts 17°
2026-04-29 14:57 7.35033 151.73085 2193 ft 156 kts 41°
2026-04-29 14:57 7.35828 151.73759 2040 ft 147 kts 41°
2026-04-29 14:58 7.36596 151.74419 1888 ft 146 kts 44°
2026-04-29 14:58 7.37332 151.75122 1732 ft 144 kts 46°
2026-04-29 14:58 7.38035 151.75843 1689 ft 143 kts 47°
2026-04-29 14:58 7.38731 151.76564 1696 ft 144 kts 47°
2026-04-29 14:59 7.39436 151.77282 1728 ft 144 kts 45°
2026-04-29 14:59 7.40156 151.77955 1638 ft 146 kts 44°
2026-04-29 14:59 7.40909 151.78675 1476 ft 148 kts 45°
2026-04-29 14:59 7.41625 151.79397 1377 ft 142 kts 48°
2026-04-29 15:00 7.42292 151.80122 1088 ft 141 kts 49°
2026-04-29 15:00 7.42939 151.80860 812 ft 139 kts 47°
2026-04-29 15:00 7.43603 151.81603 513 ft 147 kts 46°
2026-04-29 15:00 7.44314 151.82329 453 ft 144 kts 46°
2026-04-29 15:01 7.45015 151.83062 214 ft 143 kts 44°
2026-04-29 15:01 7.45701 151.83786 40 ft 140 kts 42°
2026-04-29 15:01 7.46279 151.84384 20 ft 85 kts 46°
2026-04-29 15:01 7.46562 151.84679 22 ft 47 kts 44°
2026-04-29 15:02 7.46709 151.84826 23 ft 13 kts 24°
2026-04-29 15:02 7.46769 151.84865 25 ft 9 kts 98°
2026-04-29 15:02 7.46732 151.84866 22 ft 7 kts 225°
2026-04-29 15:02 7.46694 151.84828 23 ft 9 kts 225°
2026-04-29 15:03 7.46642 151.84769 22 ft 13 kts 227°
2026-04-29 15:03 7.46569 151.84692 22 ft 17 kts 225°
2026-04-29 15:03 7.46481 151.84600 20 ft 19 kts 226°
2026-04-29 15:03 7.46387 151.84497 20 ft 21 kts 226°
2026-04-29 15:04 7.46278 151.84383 20 ft 24 kts 225°
2026-04-29 15:04 7.46162 151.84261 21 ft 25 kts 226°
2026-04-29 15:04 7.46039 151.84132 21 ft 26 kts 225°
2026-04-29 15:04 7.45944 151.84038 23 ft 13 kts 214°
2026-04-29 15:05 7.45877 151.84053 22 ft 10 kts 134°
2026-04-29 15:05 7.45852 151.84085 22 ft 9 kts 110°
2026-04-29 15:05 7.45867 151.84147 22 ft 3 kts 109°
2026-04-29 15:05 7.45847 151.84154 23 ft 3 kts 192°
2026-04-29 15:06 7.45830 151.84141 24 ft 0 kts 224°